Clothilde, Quebec

9:22 PM EST on January 19, 2017 (GMT -0500)
St. Clothilde

Weather History for CWIT - October, 2013

Change the Weather History Date:

Monday, October 7, 2013

  Actual Average Record
Temperature  
Mean Temperature 64 °F -  
Max Temperature 74 °F - - ()
Min Temperature 55 °F - - ()
Growing Degree Days 14 (Base 50)    
Moisture  
Dew Point 56 °F    
Average Humidity 80    
Maximum Humidity 94    
Minimum Humidity 60    
Precipitation  
Precipitation 0.87 in - - ()
Sea Level Pressure  
Sea Level Pressure 29.72 in    
Wind  
Wind Speed 11 mph ()    
Max Wind Speed 17 mph    
Max Gust Speed 30 mph    
T = Trace of Precipitation, MM = Missing Value Source: Averaged Metar Reports

Daily Weather History Graph

Daily Weather History Graph

Search for Another Location

Airport or City:

Trip Planner

Search our weather history database for the weather conditions in past years. The results will help you decide how hot, cold, wet, or windy it might be!

Date:

Astronomy

Oct. 07, 2013 Rise Set
Actual Time 7:00 AM EDT 6:23 PM EDT
Civil Twilight 6:31 AM EDT 6:52 PM EDT
Nautical Twilight 5:57 AM EDT 7:26 PM EDT
Astronomical Twilight 5:22 AM EDT 8:01 PM EDT
Moon 9:56 AM EDT (10/7) 7:57 PM EDT (10/7)
Length of Visible Light 12h 21m
Length of Day
11h 22m
Waxing Crescent, 8% of the Moon is Illuminated
Oct 7
Waxing Crescent
Oct 11
First Quarter
Oct 18
Full
Oct 26
Last Quarter
Nov 3
New

Hourly Weather History & Observations

Time (EDT) Temp. Dew Point Humidity Pressure Visibility Wind Dir Wind Speed Gust Speed Precip Events Conditions
12:00 AM 57.9 °F 54.5 °F 88% 29.85 in - SSE 15.0 mph 25.3 mph N/A   Unknown
1:00 AM 58.5 °F 54.9 °F 88% 29.85 in - SSE 11.5 mph 21.9 mph N/A   Unknown
2:00 AM 58 °F 55 °F 86% 29.84 in - SSE 11.5 mph - -  
2:00 AM 58.5 °F 55.0 °F 88% 29.84 in - SSE 11.5 mph 18.4 mph N/A   Unknown
3:00 AM 58.8 °F 55.8 °F 90% 29.81 in - SSE 11.5 mph 18.4 mph N/A   Unknown
4:00 AM 59.5 °F 56.1 °F 88% 29.79 in - SSE 13.8 mph 21.9 mph N/A   Unknown
5:00 AM 59.5 °F 56.1 °F 88% 29.78 in - SSE 11.5 mph 18.4 mph N/A   Unknown
6:00 AM 60.3 °F 56.5 °F 87% 29.76 in - SSE 16.1 mph 26.5 mph N/A   Unknown
7:00 AM 60.8 °F 57.0 °F 87% 29.75 in - SSE 11.5 mph 21.9 mph N/A   Unknown
8:00 AM 62 °F 58 °F 81% 29.75 in - SSE 13.8 mph - -  
8:00 AM 62.1 °F 57.7 °F 86% 29.75 in - SSE 13.8 mph 23.0 mph N/A   Unknown
9:00 AM 63.7 °F 58.3 °F 83% 29.73 in - SSE 15.0 mph 24.2 mph N/A   Unknown
10:00 AM 67.6 °F 59.9 °F 76% 29.70 in - SSE 17.3 mph 28.8 mph N/A   Unknown
11:00 AM 70.2 °F 60.6 °F 72% 29.67 in - SSE 17.3 mph 26.5 mph N/A   Unknown
12:00 PM 73.4 °F 61.3 °F 66% 29.63 in - SSE 16.1 mph 26.5 mph N/A   Unknown
1:00 PM 72.7 °F 61.0 °F 67% 29.58 in - SSE 13.8 mph 27.6 mph N/A   Unknown
2:00 PM 73 °F 62 °F 60% 29.55 in - SSE 16.1 mph - -  
2:00 PM 73.2 °F 62.1 °F 68% 29.55 in - SSE 16.1 mph 29.9 mph N/A   Unknown
3:00 PM 61.0 °F 59.0 °F 93% 29.60 in - WSW 6.9 mph - 0.33 in   Unknown
4:00 PM 58.6 °F 57.0 °F 94% 29.60 in - West 5.8 mph - 0.36 in   Unknown
5:00 PM 58.1 °F 55.9 °F 93% 29.62 in - West 8.1 mph - 0.11 in   Unknown
6:00 PM 55.9 °F 53.1 °F 90% 29.68 in - WSW 6.9 mph - 0.07 in   Unknown
7:00 PM 56.3 °F 50.0 °F 79% 29.72 in - SW 8.1 mph - N/A   Unknown
8:00 PM 57 °F 50 °F 69% 29.74 in - WSW 5.8 mph - -  
8:00 PM 56.7 °F 49.6 °F 77% 29.74 in - WSW 5.8 mph - N/A   Unknown
9:00 PM 56.8 °F 47.8 °F 72% 29.75 in - WSW 8.1 mph 19.6 mph N/A   Unknown
10:00 PM 56.5 °F 46.4 °F 69% 29.78 in - SW 10.4 mph 19.6 mph N/A   Unknown
11:00 PM 55.9 °F 45.5 °F 68% 29.78 in - WSW 10.4 mph 23.0 mph N/A   Unknown